• In Hungary
  • List of Countries
  • For 7 days
  • Water Temperature
  • Satellite Maps
  • Weather Map
  • News
  • Weather Widgets
  • user-avatar
    Login

    Hourly Weather Swierczyniec

    Today, 16 October, Tuesday

    Time Temperature Precipitation Wind Pressure Humidity
    00:00 +13°C° 0 mm 2 mps 744 mmHg 57%
    01:00 +14°C° 0 mm 2 mps 744 mmHg 56%
    02:00 +13°C° 0 mm 2 mps 744 mmHg 56%
    03:00 +13°C° 0 mm 2 mps 744 mmHg 55%
    04:00 +13°C° 0 mm 1 mps 744 mmHg 54%
    05:00 +13°C° 0 mm 1 mps 744 mmHg 53%
    06:00 +13°C° 0 mm 1 mps 744 mmHg 52%
    07:00 +13°C° 0 mm 1 mps 744 mmHg 51%
    08:00 +16°C° 0 mm 2 mps 744 mmHg 46%
    09:00 +18°C° 0 mm 2 mps 745 mmHg 41%
    10:00 +20°C° 0 mm 2 mps 745 mmHg 36%
    11:00 +21°C° 0 mm 2 mps 745 mmHg 34%
    12:00 +23°C° 0 mm 2 mps 745 mmHg 32%
    13:00 +24°C° 0 mm 2 mps 745 mmHg 31%
    14:00 +23°C° 0 mm 2 mps 744 mmHg 34%
    15:00 +22°C° 0 mm 1 mps 744 mmHg 38%
    16:00 +21°C° 0 mm 1 mps 744 mmHg 41%
    17:00 +20°C° 0 mm 1 mps 744 mmHg 44%
    18:00 +18°C° 0 mm 1 mps 744 mmHg 47%
    19:00 +16°C° 0 mm 1 mps 744 mmHg 49%
    20:00 +16°C° 0 mm 1 mps 744 mmHg 50%
    21:00 +15°C° 0 mm 1 mps 745 mmHg 51%
    22:00 +15°C° 0 mm 1 mps 745 mmHg 52%
    23:00 +15°C° 0 mm 1 mps 745 mmHg 52%

    Tomorrow, 17 October, Wednesday

    Time Temperature Precipitation Wind Pressure Humidity
    00:00 +15°C° 0 mm 1 mps 745 mmHg 52%
    01:00 +15°C° 0 mm 1 mps 745 mmHg 52%
    02:00 +14°C° 0 mm 1 mps 744 mmHg 53%
    03:00 +14°C° 0 mm 1 mps 744 mmHg 53%
    04:00 +14°C° 0 mm 1 mps 744 mmHg 53%
    05:00 +14°C° 0 mm 1 mps 744 mmHg 54%
    06:00 +14°C° 0 mm 1 mps 744 mmHg 55%
    07:00 +14°C° 0 mm 1 mps 744 mmHg 56%
    08:00 +16°C° 0 mm 1 mps 744 mmHg 52%
    09:00 +19°C° 0 mm 1 mps 744 mmHg 47%
    10:00 +21°C° 0 mm 1 mps 744 mmHg 43%
    11:00 +22°C° 0 mm 1 mps 744 mmHg 41%
    12:00 +23°C° 0 mm 1 mps 744 mmHg 39%
    13:00 +24°C° 0 mm 1 mps 744 mmHg 36%
    14:00 +23°C° 0 mm 1 mps 744 mmHg 39%
    15:00 +22°C° 0 mm 1 mps 743 mmHg 43%
    16:00 +21°C° 0 mm 1 mps 743 mmHg 46%
    17:00 +20°C° 0 mm 1 mps 743 mmHg 47%
    18:00 +19°C° 0 mm 1 mps 743 mmHg 49%
    19:00 +18°C° 0 mm 1 mps 743 mmHg 51%
    20:00 +18°C° 0 mm 1 mps 743 mmHg 53%
    21:00 +16°C° 0 mm 1 mps 743 mmHg 54%
    22:00 +16°C° 0 mm 1 mps 743 mmHg 56%
    23:00 +16°C° 0 mm 1 mps 743 mmHg 58%

    Day after tomorrow, 18 October, Thursday

    Time Temperature Precipitation Wind Pressure Humidity
    00:00 +15°C° 0 mm 1 mps 743 mmHg 59%
    01:00 +15°C° 0 mm 1 mps 743 mmHg 61%
    02:00 +15°C° 0 mm 1 mps 743 mmHg 62%
    03:00 +15°C° 0 mm 1 mps 743 mmHg 63%
    04:00 +14°C° 0 mm 0 mps 743 mmHg 64%
    05:00 +15°C° 0.1 mm 1 mps 743 mmHg 65%
    06:00 +15°C° 0.1 mm 1 mps 743 mmHg 65%
    07:00 +15°C° 0.1 mm 1 mps 743 mmHg 66%
    08:00 +15°C° 0.1 mm 1 mps 743 mmHg 65%
    09:00 +16°C° 0.1 mm 1 mps 743 mmHg 65%
    10:00 +16°C° 0.1 mm 1 mps 743 mmHg 64%
    11:00 +18°C° 0 mm 1 mps 743 mmHg 62%
    12:00 +18°C° 0 mm 1 mps 743 mmHg 60%
    13:00 +19°C° 0 mm 1 mps 743 mmHg 57%
    14:00 +18°C° 0 mm 1 mps 743 mmHg 59%
    15:00 +16°C° 0 mm 0 mps 742 mmHg 61%
    16:00 +16°C° 0 mm 0 mps 742 mmHg 62%
    17:00 +15°C° 0 mm 0 mps 742 mmHg 63%
    18:00 +15°C° 0 mm 0 mps 743 mmHg 64%
    19:00 +14°C° 0 mm 0 mps 743 mmHg 65%
    20:00 +14°C° 0 mm 0 mps 743 mmHg 66%
    21:00 +14°C° 0 mm 0 mps 743 mmHg 67%
    22:00 +14°C° 0 mm 0 mps 743 mmHg 67%
    23:00 +13°C° 0 mm 0 mps 743 mmHg 68%

    19 October, Friday

    Time Temperature Precipitation Wind Pressure Humidity
    00:00 +14°C° 0 mm 1 mps 743 mmHg 70%
    01:00 +14°C° 0 mm 1 mps 743 mmHg 71%
    02:00 +14°C° 0 mm 1 mps 743 mmHg 73%
    03:00 +13°C° 0 mm 1 mps 743 mmHg 75%
    04:00 +13°C° 0 mm 1 mps 743 mmHg 77%
    05:00 +12°C° 0 mm 1 mps 743 mmHg 79%
    06:00 +12°C° 0 mm 1 mps 744 mmHg 81%
    07:00 +12°C° 0 mm 1 mps 744 mmHg 84%
    08:00 +13°C° 0 mm 2 mps 744 mmHg 78%
    09:00 +15°C° 0 mm 2 mps 744 mmHg 73%
    10:00 +16°C° 0 mm 2 mps 744 mmHg 67%
    11:00 +17°C° 0 mm 3 mps 744 mmHg 66%
    12:00 +17°C° 0 mm 3 mps 744 mmHg 64%
    13:00 +18°C° 0 mm 3 mps 744 mmHg 63%
    14:00 +17°C° 0 mm 3 mps 744 mmHg 67%
    15:00 +16°C° 0 mm 3 mps 744 mmHg 71%
    16:00 +16°C° 0 mm 3 mps 744 mmHg 75%
    17:00 +14°C° 0.1 mm 3 mps 744 mmHg 79%
    18:00 +14°C° 0.1 mm 2 mps 744 mmHg 82%
    19:00 +14°C° 0.1 mm 2 mps 745 mmHg 85%
    20:00 +13°C° 0 mm 2 mps 745 mmHg 86%
    21:00 +13°C° 0 mm 2 mps 745 mmHg 87%
    22:00 +12°C° 0 mm 2 mps 745 mmHg 88%
    23:00 +12°C° 0 mm 2 mps 745 mmHg 89%

    20 October, Saturday

    Time Temperature Precipitation Wind Pressure Humidity
    00:00 +10°C° 0 mm 2 mps 745 mmHg 89%
    01:00 +10°C° 0 mm 2 mps 745 mmHg 89%
    02:00 +10°C° 0 mm 2 mps 745 mmHg 88%
    03:00 +11°C° 0 mm 1 mps 745 mmHg 87%
    04:00 +10°C° 0 mm 1 mps 745 mmHg 87%
    05:00 +9°C° 0 mm 2 mps 745 mmHg 87%
    06:00 +9°C° 0 mm 2 mps 745 mmHg 87%
    07:00 +8°C° 0 mm 2 mps 746 mmHg 88%
    08:00 +9°C° 0 mm 2 mps 746 mmHg 81%
    09:00 +12°C° 0 mm 2 mps 746 mmHg 75%
    10:00 +13°C° 0 mm 2 mps 746 mmHg 69%
    11:00 +13°C° 0 mm 2 mps 746 mmHg 63%
    12:00 +13°C° 0 mm 3 mps 745 mmHg 56%
    13:00 +14°C° 0 mm 3 mps 745 mmHg 50%
    14:00 +13°C° 0 mm 3 mps 745 mmHg 52%
    15:00 +13°C° 0 mm 3 mps 745 mmHg 53%
    16:00 +12°C° 0 mm 3 mps 745 mmHg 54%
    17:00 +11°C° 0 mm 3 mps 745 mmHg 58%
    18:00 +10°C° 0 mm 2 mps 745 mmHg 62%
    19:00 +8°C° 0 mm 2 mps 746 mmHg 66%
    20:00 +8°C° 0 mm 2 mps 746 mmHg 69%
    21:00 +7°C° 0 mm 2 mps 746 mmHg 72%
    22:00 +7°C° 0 mm 2 mps 746 mmHg 74%
    23:00 +6°C° 0 mm 2 mps 746 mmHg 76%

    21 October, Sunday

    Time Temperature Precipitation Wind Pressure Humidity
    00:00 +6°C° 0 mm 2 mps 746 mmHg 77%
    01:00 +6°C° 0 mm 2 mps 746 mmHg 78%
    02:00 +6°C° 0.1 mm 2 mps 746 mmHg 79%
    03:00 +6°C° 0.1 mm 2 mps 746 mmHg 80%
    04:00 +7°C° 0.1 mm 2 mps 746 mmHg 81%
    05:00 +7°C° 0.2 mm 2 mps 746 mmHg 83%
    06:00 +7°C° 0.2 mm 3 mps 746 mmHg 84%
    07:00 +7°C° 0.2 mm 3 mps 746 mmHg 86%
    08:00 +7°C° 0.1 mm 3 mps 746 mmHg 81%
    09:00 +7°C° 0.1 mm 4 mps 746 mmHg 77%
    10:00 +8°C° 0.1 mm 4 mps 746 mmHg 73%
    11:00 +8°C° 0.1 mm 4 mps 746 mmHg 70%
    12:00 +10°C° 0.1 mm 4 mps 746 mmHg 68%
    13:00 +10°C° 0.1 mm 4 mps 745 mmHg 65%
    14:00 +10°C° 0.1 mm 4 mps 745 mmHg 66%
    15:00 +9°C° 0.1 mm 3 mps 745 mmHg 67%
    16:00 +9°C° 0.1 mm 3 mps 745 mmHg 68%
    17:00 +9°C° 0 mm 2 mps 745 mmHg 72%
    18:00 +8°C° 0 mm 2 mps 746 mmHg 75%
    19:00 +7°C° 0 mm 2 mps 746 mmHg 79%
    20:00 +8°C° 0 mm 1 mps 746 mmHg 82%
    21:00 +7°C° 0 mm 1 mps 746 mmHg 84%
    22:00 +7°C° 0 mm 1 mps 746 mmHg 86%
    23:00 +7°C° 0 mm 1 mps 746 mmHg 86%
    Show more